Weather in Silifke

Turkey     36°22′31″N   33°56′14″E
temp.,
°C
wind,
m/s
gust,
m/s
humid.,
%
clouds,
%
prec.,
mm/h
press.,
hPa
HPBL,
m
6 march, sat
sat600:00+6ne12720 0.0 102422
03:00+6nne23700 0.0 102422
06:00+6nne228274 0.0 102323
09:00+10ene117288 0.0 1024189
12:00+12sse326670 0.0 1023812
15:00+11s337556 0.0 1021546
18:00+10ssw3381100 0.0 1021393
21:00+8e0192100 0.0 102123
7 march, sun
sun700:00+7ne129159 0.0 102124
03:00+7nne238930 0.0 102027
06:00+6nne22840 0.0 102032
09:00+10ene23691 0.0 1019305
12:00+13ese32630 0.0 1018883
15:00+13sse337131 0.1 1016653
18:00+11ssw338190 0.1 1015350
21:00+8s019047 0.1 101622
8 march, mon
mon800:00+8nnw23690 0.0 101530
03:00+7nnw23660 0.0 101426
06:00+7nw33630 0.0 101440
09:00+11nw35480 0.0 1015410
12:00+14ssw23480 0.0 10141039
15:00+15ssw35370 0.0 10131348
18:00+13e12600 0.0 1013400
21:00+9nnw46350 0.0 101498
9 march, tue
tue900:00+9nnw23400 0.0 101526
03:00+6wnw015117 0.0 101422
06:00+5e015367 0.0 101422
09:00+11sse114033 0.0 1016229
12:00+13sse324316 0.0 1016922
15:00+13sse325829 0.0 1014785
18:00+11ssw3371100 0.0 1015445
21:00+9nne1271100 0.0 101624
10 march, wed
wed1000:00+9ne337388 0.0 101638
03:00+8nne238278 0.0 101527
06:00+7ne238396 0.0 101435
09:00+11ne457073 0.0 1014339
12:00+15e555536 0.0 1013651
15:00+16e665068 0.0 1010700
18:00+13ene475953 0.0 1008617
21:00+11n346527 0.0 100850